Hourly Weather Chalupki

Today, 25 June, Friday

Time Temperature Precipitation Wind Pressure Humidity
00:00 +19°C° 0.7 mm 1 mps 714 mmHg 97%
01:00 +18°C° 0 mm 1 mps 715 mmHg 98%
02:00 +18°C° 0.4 mm 1 mps 715 mmHg 98%
03:00 +18°C° 0.4 mm 1 mps 714 mmHg 98%
04:00 +18°C° 0.4 mm 1 mps 714 mmHg 98%
05:00 +18°C° 0 mm 1 mps 714 mmHg 96%
06:00 +19°C° 0 mm 1 mps 714 mmHg 94%
07:00 +20°C° 0 mm 1 mps 714 mmHg 92%
08:00 +20°C° 0.1 mm 1 mps 714 mmHg 90%
09:00 +21°C° 0.1 mm 1 mps 715 mmHg 87%
10:00 +21°C° 0.1 mm 1 mps 715 mmHg 85%
11:00 +20°C° 0.6 mm 2 mps 715 mmHg 87%
12:00 +20°C° 0.6 mm 2 mps 715 mmHg 89%
13:00 +19°C° 0.6 mm 3 mps 715 mmHg 92%
14:00 +19°C° 0.1 mm 2 mps 715 mmHg 91%
15:00 +19°C° 0.1 mm 2 mps 715 mmHg 90%
16:00 +18°C° 0.1 mm 2 mps 715 mmHg 89%
17:00 +19°C° 0 mm 1 mps 715 mmHg 90%
18:00 +19°C° 0 mm 1 mps 715 mmHg 90%
19:00 +17°C° 0 mm 0 mps 715 mmHg 91%
20:00 +18°C° 0 mm 1 mps 716 mmHg 92%
21:00 +16°C° 0 mm 1 mps 716 mmHg 93%
22:00 +16°C° 0 mm 1 mps 716 mmHg 94%
23:00 +15°C° 0 mm 1 mps 715 mmHg 94%

Tomorrow, 26 June, Saturday

Time Temperature Precipitation Wind Pressure Humidity
00:00 +14°C° 0 mm 0 mps 715 mmHg 95%
01:00 +13°C° 0 mm 0 mps 715 mmHg 95%
02:00 +13°C° 0 mm 0 mps 715 mmHg 95%
03:00 +13°C° 0 mm 0 mps 716 mmHg 95%
04:00 +13°C° 0 mm 0 mps 716 mmHg 96%
05:00 +14°C° 0 mm 0 mps 716 mmHg 93%
06:00 +16°C° 0 mm 1 mps 716 mmHg 91%
07:00 +18°C° 0 mm 1 mps 717 mmHg 88%
08:00 +20°C° 0.1 mm 1 mps 717 mmHg 81%
09:00 +20°C° 0.1 mm 2 mps 717 mmHg 73%
10:00 +21°C° 0.1 mm 2 mps 717 mmHg 66%
11:00 +23°C° 0.2 mm 2 mps 717 mmHg 65%
12:00 +23°C° 0.2 mm 2 mps 717 mmHg 65%
13:00 +23°C° 0.2 mm 2 mps 716 mmHg 64%
14:00 +23°C° 0.9 mm 2 mps 716 mmHg 70%
15:00 +21°C° 0.9 mm 2 mps 716 mmHg 75%
16:00 +21°C° 0.9 mm 2 mps 716 mmHg 81%
17:00 +20°C° 0.5 mm 2 mps 716 mmHg 84%
18:00 +20°C° 0.5 mm 1 mps 716 mmHg 87%
19:00 +19°C° 0.5 mm 1 mps 716 mmHg 91%
20:00 +18°C° 0 mm 1 mps 716 mmHg 92%
21:00 +16°C° 0 mm 1 mps 716 mmHg 93%
22:00 +15°C° 0 mm 1 mps 717 mmHg 94%
23:00 +15°C° 0 mm 1 mps 717 mmHg 94%

Day after tomorrow, 27 June, Sunday

Time Temperature Precipitation Wind Pressure Humidity
00:00 +15°C° 0 mm 1 mps 716 mmHg 95%
01:00 +14°C° 0 mm 1 mps 716 mmHg 95%
02:00 +13°C° 0 mm 0 mps 716 mmHg 95%
03:00 +13°C° 0 mm 0 mps 717 mmHg 96%
04:00 +13°C° 0 mm 0 mps 717 mmHg 96%
05:00 +14°C° 0 mm 0 mps 717 mmHg 93%
06:00 +16°C° 0 mm 0 mps 717 mmHg 90%
07:00 +17°C° 0 mm 0 mps 717 mmHg 87%
08:00 +20°C° 0.1 mm 1 mps 717 mmHg 80%
09:00 +22°C° 0.1 mm 1 mps 717 mmHg 73%
10:00 +23°C° 0.1 mm 1 mps 717 mmHg 66%
11:00 +23°C° 0.6 mm 1 mps 717 mmHg 68%
12:00 +23°C° 0.6 mm 1 mps 717 mmHg 71%
13:00 +23°C° 0.6 mm 2 mps 717 mmHg 73%
14:00 +23°C° 0.6 mm 1 mps 717 mmHg 74%
15:00 +23°C° 0.6 mm 1 mps 717 mmHg 75%
16:00 +23°C° 0.6 mm 1 mps 717 mmHg 76%
17:00 +22°C° 0.3 mm 1 mps 717 mmHg 80%
18:00 +21°C° 0.3 mm 1 mps 717 mmHg 85%
19:00 +18°C° 0.3 mm 0 mps 717 mmHg 89%
20:00 +17°C° 0.1 mm 0 mps 717 mmHg 90%
21:00 +18°C° 0.1 mm 1 mps 717 mmHg 92%
22:00 +16°C° 0.1 mm 1 mps 717 mmHg 93%
23:00 +15°C° 0 mm 0 mps 717 mmHg 93%

28 June, Monday

Time Temperature Precipitation Wind Pressure Humidity
00:00 +14°C° 0 mm 0 mps 717 mmHg 93%
01:00 +14°C° 0 mm 0 mps 717 mmHg 94%
02:00 +14°C° 0 mm 0 mps 716 mmHg 94%
03:00 +15°C° 0 mm 1 mps 716 mmHg 94%
04:00 +15°C° 0 mm 1 mps 716 mmHg 94%
05:00 +15°C° 0 mm 0 mps 716 mmHg 90%
06:00 +17°C° 0 mm 0 mps 717 mmHg 87%
07:00 +18°C° 0 mm 0 mps 717 mmHg 83%
08:00 +20°C° 0 mm 0 mps 717 mmHg 75%
09:00 +24°C° 0 mm 1 mps 717 mmHg 67%
10:00 +25°C° 0 mm 1 mps 717 mmHg 59%
11:00 +26°C° 0.1 mm 2 mps 717 mmHg 57%
12:00 +26°C° 0.1 mm 2 mps 717 mmHg 55%
13:00 +27°C° 0.1 mm 2 mps 717 mmHg 53%
14:00 +26°C° 0.3 mm 2 mps 717 mmHg 58%
15:00 +26°C° 0.3 mm 2 mps 717 mmHg 62%
16:00 +25°C° 0.3 mm 2 mps 716 mmHg 66%
17:00 +24°C° 0.7 mm 2 mps 716 mmHg 73%
18:00 +22°C° 0.7 mm 1 mps 716 mmHg 80%
19:00 +21°C° 0.7 mm 1 mps 716 mmHg 87%
20:00 +20°C° 0.1 mm 1 mps 716 mmHg 88%
21:00 +19°C° 0.1 mm 1 mps 716 mmHg 90%
22:00 +18°C° 0.1 mm 1 mps 715 mmHg 91%
23:00 +16°C° 0 mm 1 mps 715 mmHg 92%

29 June, Tuesday

Time Temperature Precipitation Wind Pressure Humidity
00:00 +16°C° 0 mm 1 mps 715 mmHg 92%
01:00 +16°C° 0 mm 1 mps 715 mmHg 92%
02:00 +16°C° 0 mm 1 mps 715 mmHg 92%
03:00 +18°C° 0 mm 1 mps 714 mmHg 91%
04:00 +18°C° 0 mm 1 mps 714 mmHg 90%
05:00 +19°C° 0 mm 1 mps 714 mmHg 86%
06:00 +21°C° 0 mm 1 mps 714 mmHg 81%
07:00 +22°C° 0 mm 1 mps 714 mmHg 77%
08:00 +24°C° 0 mm 1 mps 714 mmHg 68%
09:00 +27°C° 0 mm 1 mps 714 mmHg 60%
10:00 +29°C° 0 mm 1 mps 714 mmHg 51%
11:00 +29°C° 0 mm 2 mps 714 mmHg 50%
12:00 +30°C° 0 mm 2 mps 713 mmHg 49%
13:00 +30°C° 0 mm 2 mps 713 mmHg 48%
14:00 +29°C° 0.3 mm 2 mps 713 mmHg 56%
15:00 +28°C° 0.3 mm 2 mps 713 mmHg 63%
16:00 +26°C° 0.3 mm 2 mps 713 mmHg 71%
17:00 +25°C° 0.1 mm 2 mps 712 mmHg 75%
18:00 +24°C° 0.1 mm 1 mps 712 mmHg 80%
19:00 +23°C° 0.1 mm 1 mps 712 mmHg 84%
20:00 +22°C° 0 mm 1 mps 712 mmHg 85%
21:00 +21°C° 0 mm 1 mps 712 mmHg 86%
22:00 +20°C° 0 mm 1 mps 711 mmHg 87%
23:00 +20°C° 0 mm 1 mps 711 mmHg 86%

30 June, Wednesday

Time Temperature Precipitation Wind Pressure Humidity
00:00 +19°C° 0 mm 1 mps 711 mmHg 86%
01:00 +19°C° 0 mm 1 mps 711 mmHg 86%
02:00 +19°C° 0 mm 1 mps 711 mmHg 86%
03:00 +19°C° 0 mm 1 mps 710 mmHg 87%
04:00 +18°C° 0 mm 1 mps 710 mmHg 87%
05:00 +19°C° 0 mm 2 mps 711 mmHg 81%
06:00 +21°C° 0 mm 2 mps 711 mmHg 75%
07:00 +24°C° 0 mm 2 mps 711 mmHg 70%
08:00 +25°C° 0 mm 2 mps 711 mmHg 68%
09:00 +25°C° 0 mm 3 mps 712 mmHg 66%
10:00 +26°C° 0 mm 3 mps 712 mmHg 65%
11:00 +26°C° 0.4 mm 3 mps 712 mmHg 68%
12:00 +25°C° 0.4 mm 4 mps 712 mmHg 70%
13:00 +25°C° 0.4 mm 4 mps 712 mmHg 73%
14:00 +25°C° 0.3 mm 4 mps 713 mmHg 74%
15:00 +25°C° 0.3 mm 3 mps 713 mmHg 74%
16:00 +24°C° 0.3 mm 3 mps 713 mmHg 75%
17:00 +22°C° 0.1 mm 3 mps 713 mmHg 79%
18:00 +21°C° 0.1 mm 2 mps 713 mmHg 84%
19:00 +20°C° 0.1 mm 2 mps 713 mmHg 88%
20:00 +21°C° 0.1 mm 1 mps 713 mmHg 90%
21:00 +20°C° 0.1 mm 1 mps 713 mmHg 92%
22:00 +19°C° 0.1 mm 1 mps 714 mmHg 93%
23:00 +19°C° 0 mm 1 mps 713 mmHg 94%
Show more

We Need Your Consent

Meteoprog and our Service Providers may store and access personal data such as cookies, device identifiers or other similar technologies on your device and process such data to personalise content and ads, as well as provide social media features and to analyse the traffic.

  • Store and/or access information on your device

    Cookies, device identifiers or other information can be stored or accessed on your device for the purposes indicated above.

  • Personalised ads and content, ad and content measurement, audience insights, and products development

    Ads and content can be personalised based on a profile. More data can be added to better personalise ads and content. Ad and content performance can be measured. Insights about the audience who saw the ads and content can be derived. Such data can be used to develop or improve user’s experience, systems and software.

By clicking ‘I Agree’ you will allow the use of indicated cookies, device identifiers, web beacons or other similar technologies. Your settings can be changed in the browser on your device.

For certain purposes, legitimate interests may be relied on, rather than consent. You can read more about this in our Privacy and Cookie Policy.